| time (UTC) | temp F | wind direction | speed knots | gust knots | rain 1hr in | rain 24hr in | rain mn in | humidity % | barometer mb |
| 20260507033443 | 47 | 10 | 0.0 | 0.0 | 0.00 | 0.43 | 0.43 | 85 | 1014.8 |
| 20260507032940 | 47 | 2 | 0.0 | 0.0 | 0.00 | 0.43 | 0.43 | 85 | 1014.7 |
| 20260507032437 | 47 | 3 | 0.0 | 0.0 | 0.00 | 0.43 | 0.43 | 85 | 1014.7 |
| 20260507031933 | 47 | 4 | 0.0 | 0.0 | 0.00 | 0.43 | 0.43 | 84 | 1014.9 |
| 20260507031430 | 47 | 5 | 0.0 | 0.0 | 0.00 | 0.43 | 0.43 | 86 | 1014.9 |
| 20260507030927 | 46 | 5 | 0.0 | 0.0 | 0.00 | 0.43 | 0.43 | 85 | 1014.7 |
| 20260507030424 | 47 | 5 | 0.0 | 0.0 | 0.00 | 0.43 | 0.43 | 86 | 1014.7 |
| 20260507025921 | 47 | 5 | 0.0 | 0.0 | 0.00 | 0.43 | 0.43 | 85 | 1014.9 |
| 20260507025418 | 46 | 5 | 0.0 | 0.0 | 0.00 | 0.43 | 0.43 | 85 | 1015.0 |
| 20260507024916 | 46 | 5 | 0.0 | 0.0 | 0.00 | 0.43 | 0.43 | 84 | 1015.1 |
| 20260507024413 | 46 | 7 | 0.0 | 0.0 | 0.00 | 0.43 | 0.43 | 85 | 1015.1 |
| 20260507023909 | 47 | 6 | 0.0 | 0.0 | 0.00 | 0.43 | 0.43 | 85 | 1015.0 |
| 20260507023406 | 47 | 7 | 0.0 | 0.0 | 0.00 | 0.43 | 0.43 | 84 | 1014.9 |
| 20260507022903 | 47 | 8 | 0.0 | 0.0 | 0.00 | 0.43 | 0.43 | 83 | 1015.0 |
| 20260507022400 | 47 | 4 | 0.0 | 0.0 | 0.00 | 0.43 | 0.43 | 82 | 1014.9 |
| 20260507021856 | 47 | 3 | 0.0 | 0.0 | 0.00 | 0.43 | 0.43 | 83 | 1014.9 |
| 20260507021351 | 47 | 2 | 0.0 | 0.0 | 0.00 | 0.43 | 0.43 | 81 | 1014.7 |
| 20260507020849 | 48 | 2 | 0.0 | 0.0 | 0.00 | 0.43 | 0.43 | 84 | 1014.6 |
| 20260507020345 | 48 | 6 | 0.0 | 0.0 | 0.00 | 0.43 | 0.43 | 81 | 1014.7 |
| 20260507015842 | 48 | 2 | 0.0 | 0.0 | 0.00 | 0.43 | 0.43 | 79 | 1014.7 |
| 20260507015340 | 48 | 2 | 0.0 | 0.0 | 0.00 | 0.43 | 0.43 | 81 | 1014.5 |
| 20260507014837 | 48 | 358 | 0.0 | 0.0 | 0.00 | 0.43 | 0.43 | 80 | 1014.6 |
| 20260507014333 | 49 | 2 | 0.0 | 0.0 | 0.00 | 0.43 | 0.43 | 82 | 1014.4 |
| 20260507013830 | 49 | 3 | 0.0 | 0.0 | 0.00 | 0.43 | 0.43 | 80 | 1014.3 |
| 20260507013327 | 49 | 4 | 0.0 | 0.0 | 0.00 | 0.43 | 0.43 | 78 | 1014.3 |
| 20260507012825 | 50 | 1 | 0.0 | 0.0 | 0.00 | 0.43 | 0.43 | 78 | 1014.5 |
| 20260507012320 | 50 | 2 | 0.0 | 0.0 | 0.00 | 0.43 | 0.43 | 77 | 1014.4 |
| 20260507011818 | 50 | 0 | 0.0 | 0.0 | 0.00 | 0.43 | 0.43 | 76 | 1014.4 |
| 20260507011315 | 51 | 2 | 0.0 | 0.0 | 0.00 | 0.43 | 0.43 | 77 | 1014.1 |
| 20260507010814 | 51 | 3 | 0.0 | 0.0 | 0.00 | 0.43 | 0.43 | 77 | 1014.4 |
| 20260507010310 | 51 | 3 | 0.0 | 0.0 | 0.00 | 0.43 | 0.43 | 77 | 1014.3 |
| 20260507005808 | 51 | 5 | 0.0 | 0.0 | 0.00 | 0.43 | 0.43 | 79 | 1014.3 |
| 20260507005306 | 51 | 358 | 0.0 | 0.0 | 0.00 | 0.43 | 0.43 | 81 | 1014.4 |
| 20260507004801 | 51 | 4 | 0.0 | 0.0 | 0.00 | 0.43 | 0.43 | 79 | 1014.4 |
| 20260507004258 | 51 | 4 | 0.0 | 0.0 | 0.00 | 0.43 | 0.43 | 79 | 1014.2 |
| 20260507003754 | 51 | 4 | 0.0 | 0.0 | 0.00 | 0.43 | 0.43 | 75 | 1014.1 |
| 20260507003250 | 51 | 3 | 0.0 | 0.0 | 0.00 | 0.43 | 0.43 | 75 | 1014.1 |
| 20260507002746 | 52 | 5 | 0.0 | 0.0 | 0.00 | 0.43 | 0.43 | 74 | 1013.9 |
| 20260507002242 | 52 | 5 | 0.0 | 0.0 | 0.00 | 0.43 | 0.43 | 72 | 1013.9 |
| 20260507001739 | 53 | 4 | 0.0 | 0.0 | 0.00 | 0.43 | 0.43 | 71 | 1013.8 |
| 20260507001237 | 53 | 4 | 0.0 | 0.0 | 0.00 | 0.43 | 0.43 | 71 | 1014.0 |
| 20260507000733 | 54 | 4 | 0.0 | 0.0 | 0.00 | 0.43 | 0.43 | 68 | 1013.6 |
| 20260507000229 | 54 | 4 | 0.0 | 0.0 | 0.00 | 0.43 | 0.43 | 67 | 1013.7 |
| 20260506235725 | 54 | 1 | 0.0 | 0.0 | 0.00 | 0.43 | 0.43 | 65 | 1013.7 |
| 20260506235221 | 55 | 5 | 0.0 | 0.0 | 0.00 | 0.43 | 0.43 | 65 | 1013.7 |
| 20260506234718 | 55 | 8 | 0.0 | 0.0 | 0.00 | 0.43 | 0.43 | 64 | 1013.7 |
| 20260506234215 | 55 | 356 | 0.0 | 0.9 | 0.00 | 0.43 | 0.43 | 63 | 1013.6 |
| 20260506233713 | 55 | 4 | 0.0 | 0.0 | 0.00 | 0.43 | 0.43 | 67 | 1013.4 |
| 20260506233209 | 55 | 349 | 0.9 | 0.9 | 0.00 | 0.43 | 0.43 | 62 | 1013.5 |
| 20260506232707 | 55 | 2 | 0.0 | 0.0 | 0.00 | 0.43 | 0.43 | 62 | 1013.7 |
| 20260506232201 | 55 | 8 | 0.9 | 0.9 | 0.00 | 0.43 | 0.43 | 60 | 1013.5 |
| 20260506231658 | 55 | 14 | 0.9 | 0.9 | 0.00 | 0.43 | 0.43 | 60 | 1013.7 |
| 20260506231157 | 55 | 333 | 0.9 | 0.9 | 0.00 | 0.43 | 0.43 | 61 | 1013.9 |
| 20260506230653 | 55 | 345 | 1.7 | 1.7 | 0.00 | 0.43 | 0.43 | 60 | 1013.6 |
| 20260506230149 | 55 | 282 | 1.7 | 1.7 | 0.00 | 0.43 | 0.43 | 62 | 1013.6 |
| 20260506225646 | 56 | 311 | 1.7 | 2.6 | 0.00 | 0.43 | 0.43 | 58 | 1013.6 |
| 20260506225143 | 56 | 351 | 0.9 | 1.7 | 0.00 | 0.43 | 0.43 | 59 | 1013.6 |
| 20260506224640 | 57 | 321 | 0.9 | 1.7 | 0.00 | 0.43 | 0.43 | 58 | 1013.8 |
| 20260506224136 | 56 | 18 | 0.0 | 0.0 | 0.00 | 0.43 | 0.43 | 59 | 1014.0 |
| 20260506223633 | 56 | 339 | 1.7 | 1.7 | 0.00 | 0.43 | 0.43 | 57 | 1014.0 |
| 20260506223128 | 56 | 350 | 1.7 | 1.7 | 0.00 | 0.43 | 0.43 | 57 | 1013.9 |
| 20260506222626 | 56 | 310 | 0.0 | 0.9 | 0.00 | 0.43 | 0.43 | 60 | 1013.9 |
| 20260506222122 | 56 | 341 | 1.7 | 2.6 | 0.00 | 0.43 | 0.43 | 57 | 1013.9 |
| 20260506221620 | 56 | 358 | 0.9 | 0.9 | 0.00 | 0.43 | 0.43 | 59 | 1013.9 |
| 20260506221118 | 56 | 351 | 1.7 | 1.7 | 0.00 | 0.43 | 0.43 | 60 | 1014.2 |
| 20260506220614 | 56 | 5 | 0.9 | 0.9 | 0.00 | 0.43 | 0.43 | 60 | 1014.0 |
| 20260506220109 | 56 | 354 | 0.9 | 1.7 | 0.00 | 0.43 | 0.43 | 60 | 1014.1 |
| 20260506215606 | 56 | 327 | 0.9 | 0.9 | 0.00 | 0.43 | 0.43 | 60 | 1014.0 |
| 20260506215101 | 56 | 268 | 1.7 | 2.6 | 0.00 | 0.43 | 0.43 | 59 | 1013.7 |
| 20260506214559 | 56 | 270 | 0.9 | 1.7 | 0.00 | 0.43 | 0.43 | 61 | 1013.9 |
| 20260506214056 | 56 | 328 | 1.7 | 1.7 | 0.00 | 0.43 | 0.43 | 58 | 1013.9 |
| 20260506213554 | 56 | 18 | 0.9 | 0.9 | 0.00 | 0.43 | 0.43 | 57 | 1014.0 |
| 20260506213051 | 56 | 10 | 2.6 | 4.3 | 0.00 | 0.43 | 0.43 | 56 | 1013.7 |
| 20260506212548 | 56 | 6 | 1.7 | 1.7 | 0.00 | 0.43 | 0.43 | 58 | 1013.8 |
| 20260506212043 | 56 | 6 | 0.9 | 1.7 | 0.00 | 0.43 | 0.43 | 58 | 1013.7 |
| 20260506211539 | 56 | 278 | 0.9 | 1.7 | 0.00 | 0.43 | 0.43 | 60 | 1013.6 |
| 20260506211036 | 56 | 32 | 0.9 | 0.9 | 0.00 | 0.43 | 0.43 | 59 | 1013.6 |
| 20260506210532 | 56 | 332 | 0.9 | 0.9 | 0.00 | 0.43 | 0.43 | 60 | 1013.6 |
| 20260506210029 | 56 | 350 | 2.6 | 2.6 | 0.00 | 0.43 | 0.43 | 60 | 1013.4 |
| 20260506205526 | 56 | 315 | 1.7 | 1.7 | 0.00 | 0.43 | 0.43 | 59 | 1013.7 |
| 20260506205021 | 56 | 331 | 1.7 | 1.7 | 0.00 | 0.43 | 0.43 | 58 | 1013.5 |
| 20260506204519 | 56 | 36 | 0.9 | 1.7 | 0.00 | 0.43 | 0.43 | 58 | 1013.5 |
| 20260506204016 | 56 | 300 | 0.0 | 0.9 | 0.00 | 0.43 | 0.43 | 59 | 1013.6 |
| 20260506203514 | 56 | 10 | 0.0 | 0.9 | 0.00 | 0.43 | 0.43 | 58 | 1013.5 |
| 20260506203010 | 56 | 6 | 1.7 | 1.7 | 0.00 | 0.43 | 0.43 | 60 | 1013.5 |
| 20260506202508 | 56 | 11 | 0.9 | 0.9 | 0.00 | 0.43 | 0.43 | 57 | 1013.7 |
| 20260506201958 | 56 | 0 | 1.7 | 1.7 | 0.00 | 0.43 | 0.43 | 57 | 1013.4 |
| 20260506201456 | 56 | 333 | 1.7 | 1.7 | 0.00 | 0.43 | 0.43 | 60 | 1013.6 |
| 20260506200952 | 56 | 301 | 1.7 | 1.7 | 0.00 | 0.43 | 0.43 | 61 | 1013.7 |
| 20260506200449 | 56 | 327 | 1.7 | 1.7 | 0.00 | 0.43 | 0.43 | 61 | 1013.5 |
| 20260506195945 | 56 | 342 | 1.7 | 1.7 | 0.00 | 0.43 | 0.43 | 57 | 1013.6 |
| 20260506195442 | 56 | 358 | 4.3 | 5.2 | 0.00 | 0.43 | 0.43 | 58 | 1013.4 |
| 20260506194939 | 57 | 311 | 2.6 | 2.6 | 0.00 | 0.43 | 0.43 | 59 | 1013.4 |
| 20260506194437 | 57 | 344 | 0.9 | 0.9 | 0.00 | 0.43 | 0.43 | 57 | 1013.4 |
| 20260506193933 | 57 | 15 | 2.6 | 2.6 | 0.00 | 0.43 | 0.43 | 57 | 1013.4 |
| 20260506193430 | 57 | 319 | 2.6 | 4.3 | 0.00 | 0.43 | 0.43 | 57 | 1013.2 |
| 20260506192927 | 57 | 306 | 2.6 | 4.3 | 0.00 | 0.43 | 0.43 | 57 | 1013.1 |
| 20260506192424 | 57 | 293 | 2.6 | 2.6 | 0.00 | 0.43 | 0.43 | 56 | 1013.1 |
| 20260506191920 | 57 | 302 | 1.7 | 2.6 | 0.00 | 0.43 | 0.43 | 55 | 1013.3 |
| 20260506191417 | 57 | 11 | 0.9 | 0.9 | 0.00 | 0.43 | 0.43 | 59 | 1013.4 |
| 20260506190914 | 57 | 289 | 2.6 | 2.6 | 0.00 | 0.43 | 0.43 | 57 | 1013.2 |
| 20260506190410 | 57 | 334 | 5.2 | 6.1 | 0.00 | 0.43 | 0.43 | 57 | 1013.1 |
| 20260506185907 | 56 | 289 | 2.6 | 2.6 | 0.00 | 0.43 | 0.43 | 58 | 1013.6 |
| 20260506185405 | 57 | 337 | 1.7 | 1.7 | 0.00 | 0.43 | 0.43 | 59 | 1013.5 |
| 20260506184902 | 57 | 296 | 2.6 | 2.6 | 0.00 | 0.43 | 0.43 | 57 | 1013.2 |
| 20260506184358 | 57 | 18 | 3.5 | 4.3 | 0.00 | 0.43 | 0.43 | 57 | 1013.3 |
| 20260506183856 | 57 | 339 | 1.7 | 1.7 | 0.00 | 0.43 | 0.43 | 58 | 1012.9 |
| 20260506183350 | 58 | 322 | 2.6 | 4.3 | 0.00 | 0.43 | 0.43 | 57 | 1013.2 |
| 20260506182848 | 59 | 9 | 4.3 | 5.2 | 0.00 | 0.43 | 0.43 | 57 | 1012.9 |
| 20260506182345 | 59 | 285 | 1.7 | 1.7 | 0.00 | 0.43 | 0.43 | 58 | 1013.1 |
| 20260506181843 | 58 | 325 | 0.9 | 0.9 | 0.00 | 0.43 | 0.43 | 59 | 1012.8 |
| 20260506181341 | 57 | 293 | 2.6 | 2.6 | 0.00 | 0.43 | 0.43 | 59 | 1013.2 |
| 20260506180837 | 57 | 341 | 4.3 | 5.2 | 0.00 | 0.43 | 0.43 | 57 | 1013.2 |
| 20260506180333 | 58 | 337 | 2.6 | 4.3 | 0.00 | 0.43 | 0.43 | 58 | 1013.3 |
| 20260506175830 | 57 | 16 | 2.6 | 2.6 | 0.00 | 0.43 | 0.43 | 57 | 1013.6 |
| 20260506175327 | 58 | 344 | 3.5 | 4.3 | 0.00 | 0.43 | 0.43 | 57 | 1013.4 |
| 20260506174824 | 58 | 58 | 2.6 | 2.6 | 0.00 | 0.43 | 0.43 | 58 | 1013.4 |
| 20260506174321 | 57 | 359 | 3.5 | 5.2 | 0.00 | 0.43 | 0.43 | 58 | 1013.5 |
| 20260506173819 | 58 | 5 | 2.6 | 2.6 | 0.00 | 0.43 | 0.43 | 61 | 1013.3 |
| 20260506173315 | 57 | 350 | 1.7 | 1.7 | 0.00 | 0.43 | 0.43 | 57 | 1013.5 |
| 20260506172813 | 57 | 29 | 0.9 | 0.9 | 0.00 | 0.43 | 0.43 | 59 | 1013.4 |
| 20260506172309 | 57 | 304 | 3.5 | 5.2 | 0.00 | 0.43 | 0.43 | 59 | 1013.2 |
| 20260506171807 | 57 | 331 | 3.5 | 4.3 | 0.00 | 0.43 | 0.43 | 58 | 1013.6 |
| 20260506171303 | 57 | 335 | 1.7 | 1.7 | 0.00 | 0.43 | 0.43 | 57 | 1013.6 |
| 20260506170801 | 57 | 354 | 2.6 | 2.6 | 0.00 | 0.43 | 0.43 | 55 | 1013.4 |
| 20260506170257 | 57 | 347 | 0.9 | 0.9 | 0.00 | 0.43 | 0.43 | 58 | 1013.6 |
| 20260506165756 | 57 | 319 | 2.6 | 4.3 | 0.00 | 0.43 | 0.43 | 59 | 1013.6 |
| 20260506165253 | 58 | 349 | 0.9 | 1.7 | 0.00 | 0.43 | 0.43 | 64 | 1013.7 |
| 20260506164750 | 57 | 41 | 0.0 | 0.0 | 0.00 | 0.43 | 0.43 | 66 | 1013.6 |
| 20260506164246 | 57 | 354 | 2.6 | 4.3 | 0.00 | 0.43 | 0.43 | 62 | 1013.4 |
| 20260506163744 | 57 | 327 | 1.7 | 1.7 | 0.00 | 0.43 | 0.43 | 69 | 1013.4 |
| 20260506163238 | 56 | 285 | 1.7 | 2.6 | 0.00 | 0.43 | 0.43 | 68 | 1013.1 |
| 20260506162735 | 55 | 18 | 0.9 | 2.6 | 0.00 | 0.43 | 0.43 | 69 | 1013.4 |
| 20260506162233 | 55 | 322 | 1.7 | 2.6 | 0.00 | 0.43 | 0.43 | 65 | 1013.5 |
| 20260506161729 | 56 | 289 | 2.6 | 4.3 | 0.00 | 0.43 | 0.43 | 66 | 1013.5 |
| 20260506161227 | 56 | 313 | 2.6 | 2.6 | 0.00 | 0.43 | 0.43 | 66 | 1013.5 |
| 20260506160724 | 56 | 351 | 0.9 | 1.7 | 0.00 | 0.43 | 0.43 | 69 | 1013.4 |
| 20260506160221 | 56 | 305 | 1.7 | 1.7 | 0.00 | 0.43 | 0.43 | 64 | 1013.6 |
| 20260506155720 | 56 | 26 | 1.7 | 1.7 | 0.00 | 0.43 | 0.43 | 64 | 1013.4 |
| 20260506155216 | 56 | 131 | 1.7 | 2.6 | 0.00 | 0.43 | 0.43 | 65 | 1013.4 |
| 20260506153324 | 55 | 332 | 2.6 | 4.3 | 0.00 | 0.43 | 0.43 | 65 | 1013.5 |
| 20260506152821 | 54 | 291 | 1.7 | 1.7 | 0.00 | 0.43 | 0.43 | 69 | 1013.4 |
| 20260506152318 | 54 | 352 | 1.7 | 1.7 | 0.00 | 0.43 | 0.43 | 73 | 1013.2 |
| 20260506151817 | 53 | 337 | 0.9 | 1.7 | 0.00 | 0.43 | 0.43 | 73 | 1013.3 |
| 20260506151313 | 53 | 319 | 2.6 | 4.3 | 0.00 | 0.43 | 0.43 | 70 | 1012.9 |
| 20260506150810 | 54 | 25 | 1.7 | 1.7 | 0.00 | 0.43 | 0.43 | 73 | 1012.9 |
| 20260506150307 | 53 | 342 | 1.7 | 1.7 | 0.00 | 0.43 | 0.43 | 72 | 1012.6 |
| 20260506145804 | 53 | 18 | 0.0 | 0.9 | 0.00 | 0.43 | 0.43 | 74 | 1012.5 |
| 20260506145300 | 52 | 26 | 2.6 | 4.3 | 0.00 | 0.43 | 0.43 | 72 | 1012.4 |
| 20260506144757 | 53 | 342 | 2.6 | 2.6 | 0.00 | 0.43 | 0.43 | 74 | 1012.5 |
| 20260506144254 | 52 | 19 | 1.7 | 1.7 | 0.00 | 0.43 | 0.43 | 76 | 1012.7 |
| 20260506143752 | 51 | 348 | 5.2 | 7.0 | 0.00 | 0.43 | 0.43 | 76 | 1012.4 |
| 20260506143249 | 51 | 339 | 2.6 | 2.6 | 0.00 | 0.43 | 0.43 | 76 | 1012.4 |
| 20260506142747 | 50 | 327 | 1.7 | 1.7 | 0.00 | 0.43 | 0.43 | 79 | 1012.2 |
| 20260506142245 | 51 | 318 | 3.5 | 5.2 | 0.00 | 0.43 | 0.43 | 78 | 1012.7 |
| 20260506141743 | 50 | 17 | 1.7 | 2.6 | 0.00 | 0.43 | 0.43 | 81 | 1012.2 |
| 20260506141241 | 50 | 19 | 0.9 | 0.9 | 0.00 | 0.43 | 0.43 | 83 | 1012.2 |
| 20260506140738 | 49 | 315 | 1.7 | 1.7 | 0.00 | 0.43 | 0.43 | 85 | 1012.2 |
| 20260506140235 | 49 | 9 | 2.6 | 2.6 | 0.00 | 0.43 | 0.43 | 84 | 1012.4 |
| 20260506135732 | 49 | 302 | 2.6 | 2.6 | 0.00 | 0.43 | 0.43 | 86 | 1012.7 |
| 20260506135228 | 48 | 359 | 1.7 | 1.7 | 0.00 | 0.43 | 0.43 | 86 | 1012.6 |
| 20260506134725 | 48 | 309 | 2.6 | 4.3 | 0.00 | 0.43 | 0.43 | 85 | 1012.5 |
| 20260506134222 | 48 | 43 | 0.0 | 0.0 | 0.00 | 0.43 | 0.43 | 87 | 1012.5 |
| 20260506133719 | 48 | 1 | 1.7 | 1.7 | 0.00 | 0.43 | 0.43 | 86 | 1012.0 |
| 20260506133215 | 48 | 10 | 1.7 | 1.7 | 0.00 | 0.43 | 0.43 | 86 | 1012.1 |
| 20260506132713 | 47 | 320 | 0.9 | 1.7 | 0.00 | 0.43 | 0.43 | 89 | 1012.2 |
| 20260506132209 | 47 | 21 | 0.0 | 0.9 | 0.00 | 0.43 | 0.43 | 90 | 1012.1 |
| 20260506131707 | 47 | 354 | 2.6 | 2.6 | 0.00 | 0.43 | 0.43 | 91 | 1011.9 |
| 20260506131203 | 47 | 33 | 0.9 | 0.9 | 0.00 | 0.43 | 0.43 | 92 | 1011.8 |
| 20260506130700 | 46 | 337 | 1.7 | 1.7 | 0.00 | 0.43 | 0.43 | 92 | 1012.2 |
| 20260506130157 | 47 | 321 | 2.6 | 2.6 | 0.00 | 0.43 | 0.43 | 91 | 1012.1 |
| 20260506125655 | 46 | 42 | 0.9 | 0.9 | 0.00 | 0.43 | 0.43 | 91 | 1011.8 |
| 20260506125153 | 46 | 60 | 0.9 | 1.7 | 0.00 | 0.43 | 0.43 | 92 | 1011.9 |
| 20260506124650 | 46 | 344 | 2.6 | 2.6 | 0.00 | 0.43 | 0.43 | 93 | 1011.8 |
| 20260506124148 | 46 | 357 | 0.9 | 1.7 | 0.00 | 0.43 | 0.43 | 92 | 1011.5 |
| 20260506123645 | 46 | 71 | 0.9 | 1.7 | 0.00 | 0.43 | 0.43 | 93 | 1011.5 |
| 20260506123144 | 46 | 336 | 3.5 | 4.3 | 0.00 | 0.43 | 0.43 | 94 | 1011.4 |
| 20260506122641 | 45 | 17 | 0.9 | 1.7 | 0.00 | 0.43 | 0.43 | 94 | 1011.5 |
| 20260506122138 | 45 | 14 | 0.9 | 1.7 | 0.00 | 0.43 | 0.43 | 95 | 1011.6 |
| 20260506121635 | 45 | 4 | 0.0 | 0.0 | 0.00 | 0.43 | 0.43 | 95 | 1011.5 |
| 20260506121132 | 45 | 8 | 0.0 | 0.0 | 0.00 | 0.43 | 0.43 | 95 | 1011.4 |
| 20260506120630 | 45 | 349 | 0.0 | 0.9 | 0.00 | 0.43 | 0.43 | 95 | 1011.0 |
| 20260506120127 | 44 | 0 | 0.9 | 1.7 | 0.00 | 0.43 | 0.43 | 95 | 1011.1 |
| 20260506115626 | 44 | 35 | 0.9 | 1.7 | 0.00 | 0.43 | 0.43 | 96 | 1010.8 |
| 20260506115123 | 44 | 357 | 0.9 | 0.9 | 0.00 | 0.43 | 0.43 | 96 | 1011.1 |
| 20260506114620 | 44 | 35 | 0.9 | 0.9 | 0.00 | 0.43 | 0.43 | 97 | 1010.9 |
| 20260506114118 | 44 | 0 | 0.9 | 1.7 | 0.00 | 0.43 | 0.43 | 98 | 1010.7 |
| 20260506113616 | 44 | 322 | 1.7 | 1.7 | 0.00 | 0.43 | 0.43 | 99 | 1010.4 |
| 20260506113113 | 44 | 13 | 1.7 | 1.7 | 0.00 | 0.43 | 0.43 | 99 | 1010.0 |
| 20260506112609 | 43 | 10 | 0.9 | 0.9 | 0.00 | 0.43 | 0.43 | 99 | 1009.9 |
| 20260506112107 | 43 | 327 | 1.7 | 1.7 | 0.00 | 0.43 | 0.43 | 99 | 1010.2 |
| 20260506111605 | 43 | 353 | 0.0 | 0.9 | 0.00 | 0.43 | 0.43 | 99 | 1010.2 |
| 20260506111102 | 43 | 306 | 0.9 | 0.9 | 0.00 | 0.43 | 0.43 | 99 | 1010.3 |
| 20260506110600 | 43 | 24 | 0.0 | 0.0 | 0.00 | 0.43 | 0.43 | 99 | 1010.3 |
| 20260506110056 | 43 | 4 | 0.0 | 0.9 | 0.00 | 0.43 | 0.43 | 99 | 1010.6 |
| 20260506105553 | 43 | 8 | 0.9 | 1.7 | 0.00 | 0.43 | 0.43 | 99 | 1010.3 |
| 20260506105050 | 43 | 4 | 0.9 | 0.9 | 0.00 | 0.43 | 0.43 | 99 | 1010.0 |
| 20260506104548 | 43 | 330 | 0.9 | 0.9 | 0.00 | 0.43 | 0.43 | 99 | 1009.8 |
| 20260506104046 | 43 | 19 | 1.7 | 1.7 | 0.00 | 0.43 | 0.43 | 99 | 1009.9 |
| 20260506103543 | 43 | 339 | 2.6 | 2.6 | 0.00 | 0.43 | 0.43 | 99 | 1009.8 |
| 20260506103039 | 43 | 13 | 0.9 | 0.9 | 0.00 | 0.43 | 0.43 | 99 | 1009.3 |
| 20260506102538 | 43 | 29 | 0.9 | 1.7 | 0.00 | 0.43 | 0.43 | 99 | 1009.2 |
| 20260506102035 | 43 | 289 | 1.7 | 1.7 | 0.00 | 0.43 | 0.43 | 99 | 1009.0 |
| 20260506101531 | 43 | 3 | 0.0 | 0.9 | 0.00 | 0.43 | 0.43 | 99 | 1009.1 |
| 20260506101028 | 43 | 338 | 3.5 | 5.2 | 0.00 | 0.43 | 0.43 | 99 | 1009.2 |
| 20260506100527 | 44 | 270 | 1.7 | 1.7 | 0.00 | 0.43 | 0.43 | 99 | 1009.6 |
| 20260506100024 | 44 | 9 | 0.9 | 0.9 | 0.00 | 0.43 | 0.43 | 99 | 1009.5 |
| 20260506095523 | 44 | 336 | 0.9 | 0.9 | 0.00 | 0.43 | 0.43 | 99 | 1009.5 |
| 20260506095019 | 44 | 357 | 2.6 | 4.3 | 0.00 | 0.43 | 0.43 | 99 | 1009.4 |
| 20260506094517 | 44 | 353 | 1.7 | 2.6 | 0.00 | 0.43 | 0.43 | 99 | 1009.2 |
| 20260506094014 | 44 | 15 | 0.9 | 0.9 | 0.00 | 0.43 | 0.43 | 99 | 1008.7 |
| 20260506093513 | 44 | 5 | 0.0 | 0.9 | 0.00 | 0.43 | 0.43 | 99 | 1008.6 |
| 20260506093010 | 44 | 12 | 0.0 | 0.0 | 0.00 | 0.43 | 0.43 | 99 | 1008.9 |
| 20260506092508 | 44 | 15 | 0.0 | 0.0 | 0.00 | 0.43 | 0.43 | 99 | 1008.6 |
| 20260506092004 | 44 | 31 | 0.0 | 0.0 | 0.00 | 0.43 | 0.43 | 99 | 1008.1 |
| 20260506091503 | 44 | 312 | 1.7 | 1.7 | 0.00 | 0.43 | 0.43 | 99 | 1008.3 |
| 20260506090959 | 44 | 8 | 0.0 | 0.0 | 0.00 | 0.43 | 0.43 | 99 | 1008.1 |
| 20260506090457 | 44 | 19 | 1.7 | 1.7 | 0.00 | 0.43 | 0.43 | 99 | 1008.9 |
| 20260506085953 | 44 | 16 | 0.9 | 0.9 | 0.00 | 0.43 | 0.43 | 99 | 1008.9 |
| 20260506085450 | 44 | 28 | 0.0 | 0.0 | 0.00 | 0.43 | 0.43 | 99 | 1008.9 |
| 20260506084946 | 44 | 6 | 0.9 | 1.7 | 0.00 | 0.43 | 0.43 | 99 | 1008.6 |
| 20260506084443 | 44 | 21 | 2.6 | 2.6 | 0.00 | 0.43 | 0.43 | 99 | 1008.5 |
| 20260506083939 | 44 | 3 | 0.0 | 0.9 | 0.00 | 0.43 | 0.43 | 99 | 1008.7 |
| 20260506083437 | 44 | 28 | 1.7 | 1.7 | 0.00 | 0.43 | 0.43 | 99 | 1008.2 |
| 20260506082934 | 44 | 347 | 2.6 | 2.6 | 0.00 | 0.43 | 0.43 | 99 | 1008.5 |
| 20260506082431 | 44 | 15 | 1.7 | 1.7 | 0.00 | 0.43 | 0.43 | 99 | 1008.5 |
| 20260506081927 | 44 | 329 | 3.5 | 5.2 | 0.00 | 0.43 | 0.43 | 99 | 1008.6 |
| 20260506081425 | 44 | 349 | 0.9 | 0.9 | 0.00 | 0.43 | 0.43 | 99 | 1008.5 |
| 20260506080922 | 44 | 319 | 1.7 | 1.7 | 0.07 | 0.43 | 0.43 | 99 | 1008.4 |
| 20260506080419 | 44 | 1 | 0.0 | 0.0 | 0.14 | 0.43 | 0.43 | 99 | 1008.4 |
| 20260506073403 | 44 | 0 | 2.6 | 2.6 | 0.12 | 0.39 | 0.39 | 99 | 1008.6 |
| 20260506072900 | 44 | 353 | 5.2 | 7.0 | 0.12 | 0.38 | 0.38 | 99 | 1008.6 |
| 20260506072357 | 44 | 354 | 3.5 | 5.2 | 0.05 | 0.37 | 0.37 | 99 | 1008.5 |
| 20260506071855 | 44 | 41 | 4.3 | 6.1 | 0.07 | 0.36 | 0.36 | 99 | 1008.6 |
| 20260506071353 | 44 | 50 | 2.6 | 2.6 | 0.07 | 0.36 | 0.36 | 99 | 1008.7 |
| 20260506070849 | 44 | 58 | 0.9 | 1.7 | 0.00 | 0.35 | 0.35 | 99 | 1008.4 |
| 20260506070346 | 44 | 21 | 3.5 | 4.3 | 0.00 | 0.35 | 0.35 | 99 | 1008.3 |
| 20260506062323 | 46 | 345 | 0.9 | 1.7 | 0.05 | 0.33 | 0.33 | 99 | 1007.8 |
| 20260506061820 | 46 | 9 | 0.9 | 0.9 | 0.12 | 0.33 | 0.33 | 99 | 1007.9 |
| 20260506061316 | 46 | 27 | 1.7 | 1.7 | 0.12 | 0.32 | 0.32 | 99 | 1008.0 |
| 20260506060815 | 46 | 16 | 3.5 | 4.3 | 0.12 | 0.31 | 0.31 | 99 | 1007.7 |
| 20260506060312 | 46 | 10 | 3.5 | 4.3 | 0.07 | 0.30 | 0.30 | 99 | 1007.6 |
| 20260506051244 | 47 | 304 | 2.6 | 5.2 | 0.17 | 0.22 | 0.22 | 99 | 1008.5 |
| 20260506050742 | 47 | 328 | 2.6 | 2.6 | 0.12 | 0.20 | 0.20 | 99 | 1008.4 |
| 20260506050239 | 47 | 326 | 1.7 | 1.7 | 0.12 | 0.19 | 0.19 | 99 | 1008.3 |
| 20260506044730 | 47 | 32 | 1.7 | 2.6 | 0.19 | 0.16 | 0.16 | 99 | 1008.1 |
| 20260506044227 | 47 | 81 | 0.0 | 0.9 | 0.12 | 0.15 | 0.15 | 99 | 1007.9 |
| 20260506043724 | 48 | 321 | 1.7 | 1.7 | 0.00 | 0.13 | 0.13 | 99 | 1008.0 |
| 20260506043221 | 48 | 322 | 0.9 | 1.7 | 0.05 | 0.13 | 0.13 | 99 | 1007.9 |
| 20260506042720 | 48 | 26 | 1.7 | 1.7 | 0.12 | 0.13 | 0.13 | 99 | 1007.9 |
| 20260506042218 | 49 | 22 | 2.6 | 5.2 | 0.24 | 0.12 | 0.12 | 99 | 1007.9 |
| 20260506041716 | 49 | 25 | 2.6 | 4.3 | 0.35 | 0.11 | 0.11 | 99 | 1007.8 |
| 20260506041213 | 49 | 349 | 3.5 | 4.3 | 0.42 | 0.08 | 0.08 | 99 | 1008.0 |
| 20260506040711 | 49 | 16 | 3.5 | 4.3 | 0.42 | 0.05 | 0.05 | 99 | 1007.9 |
| 20260506040207 | 49 | 328 | 3.5 | 5.2 | 0.19 | 0.01 | 0.01 | 99 | 1007.8 |
| 20260506035704 | 49 | 352 | 1.7 | 1.7 | 0.12 | 0.80 | 0.80 | 99 | 1007.7 |
| 20260506035201 | 49 | 24 | 3.5 | 5.2 | 0.12 | 0.80 | 0.80 | 99 | 1007.5 |
| 20260506034652 | 49 | 345 | 4.3 | 6.1 | 0.00 | 0.78 | 0.78 | 99 | 1007.5 |
| 20260506034149 | 49 | 6 | 2.6 | 2.6 | 0.00 | 0.78 | 0.78 | 99 | 1007.5 |